Weather in Podkolki

Russia / Orenburg Oblast     52°59′25″N   52°30′45″E
temp.,
°C
wind,
m/s
gust,
m/s
humid.,
%
clouds,
%
prec.,
mm/h
press.,
hPa
HPBL,
m
28 february, sun
sun2823:000sw4898100 2.1 998366
02:000sw4698100 1.3 998337
05:00−6nw4796100 1.9 998176
08:00−11nw489596 0.4 1000249
11:00−11nw589498 0.6 1002286
14:00−9nw5893100 0.1 1004404
17:00−9nw5891100 0.1 1007504
20:00−12nw3894100 0.1 1009332
1 march, mon
mon123:00−13nw369598 0.3 1012181
02:00−14nw369692 0.2 1014199
05:00−16nw369688 0.3 1015146
08:00−16nw349688 0.1 1017135
11:00−16nw359483 0.2 1019242
14:00−13nw349090 0.0 1020354
17:00−14nw369295 0.0 1021395
20:00−20wnw339876 0.0 102222
2 march, tue
tue223:00−22w2210039 0.0 102220
02:00−22wsw2310034 0.0 102120
05:00−22ssw3310057 0.0 101940
08:00−19s4810098 0.0 1017183
11:00−15ssw6119699 0.1 1014335
14:00−11ssw71295100 0.4 1011479
17:00−8ssw81494100 1.7 1008710
20:00−5ssw71395100 1.3 1004720
3 march, wed
wed323:00−4ssw61296100 2.6 1002607
02:00−3ssw51096100 1.3 1000469
05:00−3wsw3697100 2.1 999256
08:00−4w379688 0.1 999230
11:00−4w469594 0.3 1001287
14:00−1wnw4791100 0.1 1002699
17:00−2nw4791100 0.3 1003574
20:00−3nw3893100 0.1 1004431
4 march, thu
thu423:00−4nw3895100 0.2 1006354
02:00−6wnw3797100 0.1 1007185
05:00−7nw489593 0.3 1009260
08:00−10nw499578 0.1 1011209
11:00−8wnw479486 0.1 1013344
14:00−6w469098 0.0 1014537
17:00−6wsw588997 0.1 1014537
20:00−10sw5129463 0.0 1013333